Location: Avon Lake
(41.5219°N, 93.5010°W)
Time: 15:33:43
(UTC+00:00)

Tiangong - Pass Details

Date: 07 December 2022
Orbit: 383 x 387 km, 41.5° (Epoch: 27 January)

Event Time Altitude Azimuth Distance (km) Brightness Sun altitude
Rises 01:18:55 0° 279° (W) 2,263 2.9 -28.2°
Reaches altitude 10° 01:21:01 10° 273° (W) 1,410 1.6 -28.6°
Enters shadow 01:21:42 15° 270° (W) 1,148 1.1 -28.7°
